Helicity
97 138 95 47 36 58 229 186 228 183 190 76 46 32 39 40 56 45 77 95 83 78 82 115 138 156 178 130 162 187 225 256 240 226 285 264 153 194 280 269 289 345 333 326
149 84 35 70 93 99 113 94 81 66 46 42 23 52 42 61 90 83 92 102 118 113 109 81 108 127 122 196 227 221 235 293 305 249 262 281 323 431 452 419 441 493 492 371
80 76 34 74 90 89 78 71 74 84 58 20 36 3 -10 91 51 44 53 78 111 125 133 129 117 121 135 149 158 260 281 283 292 324 325 501 509 566 575 625 650 661 623 489
53 54 65 64 49 49 70 70 59 63 62 44 74 7 15 39 41 57 78 86 95 98 112 135 132 132 145 160 166 138 239 298 319 332 394 437 464 535 553 641 736 706 545 423
65 58 37 52 43 51 73 98 92 73 74 50 15 58 -15 32 18 16 55 83 85 73 100 87 101 128 103 161 156 167 166 208 269 345 391 542 574 582 628 626 689 572 454 410
63 40 60 46 59 81 110 45 22 34 27 33 -18 37 -4 -1 84 256 220 138 90 65 65 85 76 79 91 126 158 218 167 235 265 333 436 548 604 580 549 553 600 554 503 472
59 26 34 82 45 60 75 51 30 -5 22 22 -9 33 142 88 64 79 71 144 172 178 184 155 138 119 95 85 95 170 238 260 321 401 473 474 527 504 454 514 566 526 493 492
40 31 58 40 56 62 41 56 47 42 57 102 176 132 115 18 40 111 104 137 144 140 170 186 196 163 137 124 93 119 216 354 379 469 452 420 440 446 425 430 437 444 451 417
35 49 31 30 42 62 69 26 114 132 88 101 123 171 96 -5 1 46 114 145 103 99 119 197 220 178 125 117 125 121 144 349 443 448 359 378 437 411 379 402 414 457 435 405
116 77 61 59 39 30 37 64 129 155 84 75 89 65 43 159 233 257 242 173 149 123 195 215 152 89 122 76 129 136 191 290 416 374 414 486 445 372 331 357 393 400 391 385
65 83 88 100 43 68 70 62 108 153 122 123 79 73 165 176 207 206 223 199 123 155 225 222 193 80 128 77 124 140 229 304 359 422 549 562 494 381 333 377 386 403 381 328
57 71 72 53 25 13 69 92 126 153 86 136 178 233 71 90 186 202 161 76 96 97 157 185 151 107 56 28 70 187 233 302 505 588 545 474 399 366 379 401 423 386 333 289
70 47 63 59 86 76 88 73 99 82 101 162 196 318 212 198 53 56 65 114 113 96 107 208 147 39 52 37 145 232 327 545 610 522 415 353 318 315 329 365 355 357 288 334
47 49 43 61 118 109 75 53 20 117 186 185 399 328 340 170 3 14 25 58 88 109 158 174 196 24 66 164 293 393 486 560 490 398 301 282 290 330 371 389 370 343 356 299
74 35 31 44 25 21 7 31 66 144 247 277 314 202 233 95 79 61 106 196 266 185 273 211 99 16 72 180 338 391 484 437 313 272 263 295 323 365 393 375 378 323 259 243
69 38 54 44 60 10 -1 14 68 90 145 188 166 207 137 114 96 108 88 114 121 83 190 86 23 73 209 301 356 385 383 275 230 261 295 324 372 380 373 371 273 310 228 226
26 25 25 46 75 47 8 32 25 88 99 60 66 81 46 13 33 33 57 60 92 83 -6 -64 28 213 289 293 329 326 275 245 266 294 330 358 356 379 349 298 226 187 181 152
32 19 27 36 82 -36 57 59 54 41 69 73 92 29 16 73 183 85 -1 22 5 6 73 61 124 150 125 170 214 245 263 285 319 345 355 377 361 376 242 231 213 183 136 122
30 58 17 18 43 36 50 47 18 0 18 89 40 24 20 60 73 -33 -1 -24 -14 31 60 77 71 58 98 148 169 239 279 366 391 409 454 403 279 177 163 160 147 138 136 111
28 53 23 38 23 17 58 11 37 83 15 45 10 -6 5 -4 9 12 40 41 -11 23 7 43 103 129 181 194 197 270 299 332 289 325 299 252 162 121 135 135 136 124 123 111
22 29 -6 -8 24 17 10 53 36 13 -15 -13 40 -14 -4 42 7 32 54 22 32 70 18 33 124 183 175 209 209 241 233 242 180 132 113 79 86 107 118 129 103 101 96 89
22 17 7 28 33 15 10 27 25 18 35 71 74 48 61 48 25 31 30 10 2 -6 -9 11 1 -41 -33 39 80 84 98 22 14 84 110 109 107 103 89 94 95 90 85 92
32 26 10 12 6 -7 28 -17 23 93 17 36 68 104 38 67 -22 6 32 24 4 23 -23 -24 3 21 10 31 46 91 46 58 77 120 148 124 91 81 77 76 69 76 79 77
16 17 37 -6 24 9 21 25 49 49 48 37 52 85 74 67 -30 -6 24 24 23 40 79 74 108 106 89 69 56 62 51 62 109 103 80 76 89 79 74 78 70 67 81 86
30 49 17 20 17 37 56 27 30 44 49 33 38 48 78 93 49 84 46 22 37 34 32 44 52 56 47 34 37 33 65 83 108 100 84 77 59 57 70 67 67 81 83 90
18 12 -13 2 52 45 43 30 35 72 27 24 39 76 83 94 92 84 50 48 72 112 122 106 102 114 91 108 114 91 86 104 102 85 57 51 62 72 74 79 81 76 79 81
Wind_Speed
31 41 47 47 51 62 62 58 61 53 54 68 77 83 78 73 71 70 61 56 53 53 51 51 45 49 48 46 46 43 44 39 37 37 31 26 24 25 23 18 15 14 12 11
40 57 50 48 48 54 61 62 65 65 63 66 74 91 86 88 74 64 57 56 55 57 57 56 52 45 50 53 57 56 49 40 40 39 37 35 30 24 21 21 19 16 14 12
42 39 47 54 48 49 51 57 60 66 67 71 77 87 62 58 53 49 52 60 62 59 57 58 60 56 55 51 56 60 58 56 44 42 38 34 29 25 24 21 21 21 17 14
45 40 33 41 48 43 51 47 53 57 58 59 57 83 74 76 74 64 56 53 54 56 59 61 61 63 59 60 54 58 64 66 60 50 48 43 40 37 34 25 21 21 19 17
40 39 38 43 41 38 43 40 46 52 59 68 60 66 79 63 71 65 57 49 47 45 46 49 54 59 68 63 58 56 61 60 61 57 53 49 43 39 32 27 21 21 21 19
42 32 38 39 36 40 34 42 49 53 54 69 60 55 81 62 53 53 61 41 42 44 46 48 50 52 57 61 67 59 60 58 56 54 54 52 46 39 34 32 27 23 21 19
49 48 39 40 36 36 40 42 50 57 59 69 53 55 69 63 64 76 72 49 44 41 47 51 55 58 61 61 62 64 63 58 54 51 50 50 50 43 37 33 29 23 20 20
47 46 43 35 44 37 39 40 48 61 63 65 62 63 65 56 62 51 52 51 51 58 55 56 55 62 73 68 48 54 60 54 50 48 47 46 44 43 36 33 29 24 19 16
39 44 22 19 30 26 33 43 39 56 61 67 59 64 70 69 68 64 56 46 54 50 55 55 59 68 78 73 51 43 46 51 48 47 45 43 41 37 33 29 26 22 17 11
38 38 35 22 25 31 31 27 40 43 55 65 59 65 67 51 60 59 61 63 60 52 48 52 58 68 78 76 50 43 39 40 45 44 42 39 35 31 27 26 23 19 14 10
32 36 33 29 38 33 33 41 40 42 43 55 71 54 46 58 64 66 71 75 70 57 54 57 61 69 76 64 44 45 35 34 39 39 39 35 31 27 23 22 19 15 12 9
29 32 38 39 42 22 23 33 25 41 46 34 62 70 45 48 54 55 71 75 71 52 49 47 57 63 62 59 57 43 40 32 33 34 34 31 27 24 22 19 16 12 10 7
20 31 36 32 37 28 34 28 17 13 54 24 32 46 41 64 89 84 82 66 49 49 52 44 47 48 60 56 44 41 33 27 29 31 30 28 26 23 19 16 14 9 6 6
12 31 40 40 32 36 32 16 14 12 27 27 31 50 44 49 62 72 68 54 47 41 41 40 46 47 46 36 24 24 23 24 28 31 28 27 24 20 17 14 9 5 4 5
31 43 44 59 65 57 61 41 18 16 26 23 38 44 47 38 37 40 57 60 57 66 30 36 43 45 34 29 23 22 20 23 28 28 28 25 21 18 15 10 5 1 3 8
33 40 46 58 58 56 52 40 23 14 20 21 24 45 26 23 44 34 28 26 32 30 26 36 46 40 28 23 19 17 20 25 27 27 26 22 20 16 11 6 5 3 6 12
32 38 42 46 44 49 50 18 18 32 29 10 13 31 25 20 23 13 13 9 5 19 25 11 42 29 30 26 22 24 26 26 24 24 22 20 15 12 9 6 5 6 12 17
34 33 36 47 46 46 39 26 30 12 5 2 8 19 15 11 36 23 14 5 13 20 40 48 56 41 38 32 26 28 25 23 21 21 18 14 12 8 8 6 8 12 17 22
35 34 43 43 46 49 27 28 41 51 29 19 2 19 16 14 22 23 7 10 26 38 41 44 47 46 41 41 28 22 20 19 19 14 11 9 10 10 9 12 14 18 22 28
28 38 46 41 41 38 27 35 39 38 37 23 37 15 11 7 8 21 28 48 30 41 46 51 23 5 8 18 17 18 17 17 16 12 11 8 6 6 10 15 19 24 29 33
37 46 58 52 47 44 20 32 38 40 43 43 33 7 11 30 27 39 49 53 54 48 52 57 44 35 25 20 17 21 15 13 11 15 15 8 11 17 19 22 25 29 33 37
40 40 45 40 44 45 31 33 27 47 50 37 30 33 39 38 40 46 50 53 57 61 58 55 49 62 45 31 20 17 15 7 14 20 22 22 21 22 24 25 29 33 38 42
38 37 34 18 38 38 26 45 49 46 51 48 38 28 30 36 43 44 47 48 54 50 49 51 46 41 35 31 30 32 27 25 25 25 24 23 24 27 28 30 33 38 42 46
48 52 44 44 38 34 45 48 48 49 44 43 37 21 30 31 26 32 42 42 46 45 45 45 35 31 31 30 30 31 29 24 24 25 27 28 29 30 33 36 39 41 45 49
45 41 50 53 50 37 36 45 48 43 42 41 36 22 17 26 28 27 33 29 43 41 41 40 39 37 36 33 30 30 31 30 28 28 30 31 31 33 36 39 42 44 46 49
58 57 58 48 32 37 36 42 45 39 36 38 33 26 15 19 22 26 27 27 31 31 33 34 33 31 30 33 31 29 29 30 31 31 31 32 34 37 39 43 45 45 46 49
Wind_Direction
256 258 255 258 258 259 271 274 273 273 279 279 277 275 278 281 281 280 280 280 279 280 284 284 277 275 266 254 257 248 249 245 249 253 247 250 256 266 263 262 257 262 268 286
258 257 260 265 266 267 267 271 272 277 280 281 281 275 279 275 280 281 280 280 280 281 280 280 279 274 268 267 261 259 257 246 244 244 251 259 263 268 268 271 274 275 267 278
258 272 265 261 266 267 270 270 274 277 283 285 284 279 285 291 289 287 284 282 282 281 278 277 276 273 272 263 262 261 257 254 248 248 250 258 262 262 271 271 279 278 276 281
263 265 271 264 262 267 270 278 279 282 285 280 299 279 284 289 290 291 293 293 288 282 281 279 277 277 271 269 262 263 259 255 255 246 246 241 245 248 262 261 268 277 275 280
258 261 261 262 265 267 272 286 285 286 285 288 289 286 286 297 295 298 299 291 294 292 288 286 283 279 276 278 272 258 260 255 251 243 244 242 245 255 258 262 260 270 273 271
253 270 264 265 273 269 285 285 287 288 290 285 289 287 290 300 303 311 316 296 300 301 298 296 294 291 288 281 272 275 260 255 249 243 243 240 239 243 249 255 256 259 268 268
250 255 268 266 269 277 278 285 287 286 287 288 299 290 290 300 301 300 304 308 305 305 304 302 302 299 292 285 278 269 268 252 247 244 244 244 244 242 245 248 249 245 251 261
250 259 259 271 265 279 277 284 289 287 291 295 301 296 303 307 311 309 311 305 301 301 303 302 301 302 297 292 283 274 260 251 244 241 243 246 240 245 247 249 245 246 246 252
257 262 281 291 281 283 292 286 305 296 300 300 302 305 307 305 304 304 313 308 306 300 300 302 301 299 297 290 277 271 263 249 242 239 244 241 240 241 243 242 242 242 243 241
269 268 276 297 298 284 298 314 306 307 307 305 310 310 312 324 318 321 319 317 317 312 304 303 304 301 297 289 275 267 257 243 242 239 236 233 234 238 237 233 230 229 232 233
273 275 280 293 285 288 287 293 307 312 312 314 313 320 335 331 328 324 321 318 315 313 308 307 308 305 298 294 275 265 249 240 235 231 226 224 231 232 227 227 220 221 225 234
270 282 281 285 292 308 299 305 301 311 318 324 316 315 327 329 333 330 325 321 314 310 307 311 310 307 303 288 275 253 244 238 224 216 217 222 224 222 218 215 215 216 216 254
268 287 288 300 302 306 308 307 310 285 307 306 319 326 346 330 325 321 319 323 311 308 308 314 314 314 294 281 273 250 233 218 215 213 214 216 216 210 206 200 195 211 218 287
286 291 286 291 309 318 317 334 188 297 309 263 282 283 289 322 329 332 324 316 322 311 313 315 313 305 295 285 269 228 218 221 217 212 208 209 204 194 190 187 202 215 280 323
281 284 292 280 274 290 264 217 207 225 246 284 280 276 280 320 330 347 351 339 329 314 312 301 307 288 290 271 246 227 222 224 213 204 200 198 188 178 178 184 215 236 357 341
289 296 296 279 279 243 234 223 214 256 268 277 289 265 317 325 358 347 347 354 343 330 341 300 288 272 273 252 231 224 223 215 201 193 187 179 171 169 176 164 132 14 5 345
291 293 298 270 266 258 248 228 359 347 347 8 320 270 348 314 290 325 342 322 270 199 182 137 253 254 233 226 225 224 211 199 185 179 174 166 166 161 152 126 82 46 359 353
292 302 299 251 254 248 315 15 14 38 78 144 308 267 269 353 25 33 261 219 130 151 147 150 169 207 214 219 221 209 197 185 174 169 164 165 157 132 121 76 40 12 2 353
286 295 260 259 262 254 349 15 5 317 18 60 61 266 268 60 66 67 244 165 129 131 151 163 175 187 197 199 201 181 169 162 165 163 151 144 122 119 80 52 29 6 352 346
298 274 256 271 273 288 0 19 12 6 11 65 27 259 268 206 126 98 92 46 138 133 145 138 188 132 136 186 164 151 142 138 137 129 118 104 88 68 34 18 9 356 352 345
266 254 219 238 253 243 180 16 8 346 298 305 41 199 360 72 111 86 56 67 73 76 92 105 93 88 92 104 127 114 139 118 121 104 83 62 45 44 29 12 4 355 352 350
258 250 245 266 263 242 333 11 12 322 323 352 35 40 43 51 82 73 73 76 76 79 84 87 89 104 93 92 94 97 87 186 74 70 65 62 46 19 15 11 5 358 353 350
264 257 268 114 229 219 4 335 322 338 319 319 359 42 55 71 105 89 83 71 84 73 79 86 78 74 75 77 81 83 78 76 71 64 48 32 27 29 21 10 5 357 354 352
255 238 261 234 249 224 303 330 340 336 334 338 349 65 102 65 67 65 83 78 83 78 75 78 69 69 68 69 72 76 77 67 57 52 49 42 30 19 12 8 3 359 356 352
258 264 248 231 230 297 344 342 343 352 350 339 359 23 60 66 61 61 84 69 91 83 82 79 78 76 76 75 73 70 69 65 52 45 40 35 28 21 13 8 3 1 360 357
251 247 227 244 316 329 341 344 342 5 4 351 360 15 47 75 62 66 63 66 76 72 75 76 75 74 71 73 67 59 55 54 52 43 36 28 22 15 10 4 1 1 0 358